TimeAKST,TemperatureF,Dew PointF,Humidity,Sea Level PressureIn,VisibilityMPH,Wind Direction,Wind SpeedMPH,Gust SpeedMPH,PrecipitationIn,Events,Conditions,WindDirDegrees,DateUTC
12:53 AM,34.0,30.0,85,29.08,3.0,NE,12.7,25.3,0.00,Snow,Light Snow,40,2012-12-19 09:53:00
1:53 AM,34.0,30.0,85,29.05,8.0,NNE,19.6,24.2,0.00,Snow,Light Snow,30,2012-12-19 10:53:00
3:53 AM,34.0,30.0,85,29.03,10.0,NNE,15.0,24.2,N/A,,Overcast,30,2012-12-19 12:53:00
4:53 AM,34.0,30.9,89,29.02,2.0,NNE,16.1,20.7,0.00,Snow,Light Snow,20,2012-12-19 13:53:00
5:01 AM,33.8,30.2,87,29.02,1.8,NNE,16.1,21.9,0.00,Snow,Light Snow,30,2012-12-19 14:01:00
5:09 AM,33.8,32.0,93,29.02,2.5,NNE,16.1,-,0.00,Snow,Light Snow,30,2012-12-19 14:09:00
5:53 AM,34.0,30.9,89,29.01,10.0,NNE,13.8,23.0,0.00,,Overcast,30,2012-12-19 14:53:00
6:53 AM,35.1,30.9,85,29.02,10.0,NNE,17.3,25.3,N/A,,Overcast,30,2012-12-19 15:53:00
7:53 AM,35.1,30.9,85,29.03,10.0,NNE,15.0,25.3,0.00,,Overcast,30,2012-12-19 16:53:00
8:53 AM,34.0,30.9,89,29.05,10.0,NNE,13.8,23.0,0.01,,Mostly Cloudy,30,2012-12-19 17:53:00
9:53 AM,36.0,30.9,82,29.07,10.0,NNE,15.0,23.0,0.01,,Mostly Cloudy,20,2012-12-19 18:53:00
10:53 AM,35.1,32.0,89,29.08,9.0,NNE,15.0,20.7,0.03,,Overcast,30,2012-12-19 19:53:00
11:53 AM,37.0,32.0,82,29.10,10.0,NNE,11.5,21.9,0.02,,Mostly Cloudy,20,2012-12-19 20:53:00
12:53 PM,36.0,32.0,86,29.11,10.0,NNE,8.1,-,0.10,,Mostly Cloudy,20,2012-12-19 21:53:00
1:53 PM,36.0,30.9,82,29.12,10.0,North,17.3,-,0.06,,Mostly Cloudy,360,2012-12-19 22:53:00
2:53 PM,35.1,30.9,85,29.15,10.0,NNE,13.8,20.7,0.01,,Mostly Cloudy,30,2012-12-19 23:53:00
3:53 PM,34.0,30.9,89,29.17,10.0,NNE,15.0,-,N/A,,Mostly Cloudy,30,2012-12-20 00:53:00
4:53 PM,34.0,30.9,89,29.19,10.0,NE,9.2,16.1,N/A,,Clear,40,2012-12-20 01:53:00
5:53 PM,34.0,30.9,89,29.22,10.0,NNE,15.0,24.2,N/A,,Clear,20,2012-12-20 02:53:00
6:53 PM,34.0,30.9,89,29.26,10.0,NE,8.1,17.3,N/A,,Scattered Clouds,40,2012-12-20 03:53:00
7:53 PM,34.0,32.0,92,29.27,10.0,NE,11.5,18.4,0.00,,Overcast,40,2012-12-20 04:53:00
8:53 PM,34.0,32.0,92,29.30,10.0,NNE,11.5,-,N/A,,Overcast,30,2012-12-20 05:53:00
9:53 PM,34.0,32.0,92,29.32,10.0,NNE,11.5,-,N/A,,Overcast,30,2012-12-20 06:53:00
10:53 PM,34.0,30.9,89,29.35,10.0,NNE,13.8,23.0,N/A,,Overcast,30,2012-12-20 07:53:00
11:53 PM,34.0,30.9,89,29.37,10.0,NNE,12.7,19.6,N/A,,Mostly Cloudy,30,2012-12-20 08:53:00